FW8483 Weather Reports


Display with metric or nautical units.
time (UTC)temp
F
wind
direction
speed
MPH
gust
MPH
rain 1hr
in
rain 24hr
in
rain mn
in
humidity
%
barometer
mb
20260510013508 67 142 0.0 0.0 0.00 1.03 1.02 96 1014.1
20260510013025 67 142 0.0 0.0 0.00 1.03 1.02 96 1014.0
20260510012507 67 142 0.0 2.0 0.00 1.03 1.02 96 1013.9
20260510012010 67 142 0.0 2.0 0.00 1.03 1.02 96 1013.9
20260510011528 67 142 0.0 1.0 0.00 1.03 1.02 96 1013.7
20260510011013 67 142 1.0 1.0 0.00 1.03 1.02 96 1013.5
20260510010503 68 169 0.0 2.0 0.00 1.03 1.02 96 1013.5
20260510010016 68 248 0.0 2.0 0.00 1.03 1.02 95 1013.6
20260510005503 68 248 0.0 2.0 0.00 1.03 1.02 95 1013.6
20260510005005 68 248 0.0 2.0 0.00 1.03 1.02 95 1013.6
20260510004518 68 248 0.0 2.0 0.00 1.03 1.02 95 1013.5
20260510004010 68 248 0.0 2.0 0.00 1.03 1.02 95 1013.5
20260510003508 68 248 0.0 2.0 0.00 1.03 1.02 95 1013.5
20260510003026 68 248 0.0 2.0 0.00 1.03 1.02 95 1013.6
20260510002506 68 248 0.0 2.0 0.00 1.03 1.02 95 1013.7
20260510002010 68 334 0.0 2.0 0.00 1.03 1.02 95 1013.7
20260510001525 68 334 1.0 2.0 0.00 1.03 1.02 95 1013.6
20260510001009 68 346 1.0 2.0 0.00 1.03 1.02 94 1013.5
20260510000510 68 345 0.0 2.0 0.00 1.03 1.02 94 1013.3
20260510000030 68 346 1.0 2.0 0.00 1.03 1.02 94 1013.1
20260509235503 69 22 0.0 2.0 0.00 1.03 1.02 94 1012.9
20260509235008 69 126 0.0 2.0 0.00 1.03 1.02 94 1012.9
20260509234518 69 125 0.0 1.0 0.00 1.03 1.02 94 1012.8
20260509234006 69 114 1.0 2.0 0.00 1.03 1.02 93 1012.9
20260509233505 69 49 1.0 1.0 0.00 1.03 1.02 93 1012.9
20260509233025 69 120 0.0 1.0 0.00 1.03 1.02 93 1012.8
20260509232510 69 16 0.0 2.0 0.00 1.03 1.02 93 1012.9
20260509232009 69 333 0.0 2.0 0.00 1.03 1.02 93 1013.1
20260509231524 69 333 0.0 1.0 0.00 1.03 1.02 92 1013.2
20260509231007 69 333 0.0 2.0 0.00 1.03 1.02 92 1013.3
20260509230508 69 333 0.0 2.0 0.00 1.03 1.02 92 1013.1
20260509230027 69 333 0.0 2.0 0.00 1.03 1.02 92 1013.0
20260509225507 69 42 1.0 2.0 0.00 1.03 1.02 92 1012.7
20260509225003 69 61 1.0 2.0 0.00 1.03 1.02 92 1012.6
20260509224517 69 352 1.0 4.0 0.00 1.03 1.02 91 1012.4
20260509224003 69 18 0.0 5.0 0.00 1.03 1.02 91 1012.3
20260509223504 70 53 2.0 5.0 0.00 1.04 1.02 91 1012.1
20260509223018 70 31 2.0 4.0 0.00 1.04 1.02 90 1012.0
20260509222507 70 18 2.0 4.0 0.00 1.04 1.02 91 1012.3
20260509222006 70 325 1.0 5.0 0.00 1.07 1.02 91 1012.4
20260509221528 70 341 1.0 5.0 0.00 1.09 1.02 91 1012.7
20260509221013 70 333 2.0 7.0 0.00 1.09 1.02 91 1012.7
20260509220510 70 325 3.0 7.0 0.00 1.10 1.02 91 1012.9
20260509220030 70 322 2.0 7.0 0.00 1.10 1.02 91 1012.9
20260509215510 70 319 3.0 7.0 0.00 1.10 1.02 91 1012.8
20260509215008 70 299 1.0 4.0 0.00 1.10 1.02 91 1012.5
20260509214531 70 295 1.0 4.0 0.00 1.10 1.02 91 1012.3
20260509214004 69 115 0.0 4.0 0.00 1.10 1.02 90 1012.0
20260509213505 69 196 1.0 5.0 0.00 1.11 1.02 91 1011.8
20260509213017 69 176 1.0 5.0 0.00 1.11 1.02 91 1011.6
20260509212507 69 139 3.0 7.0 0.00 1.11 1.02 90 1011.5
20260509212002 69 150 2.0 8.0 0.00 1.13 1.02 91 1011.2
20260509211504 69 170 2.0 8.0 0.00 1.26 1.02 90 1011.1
20260509211003 69 114 3.0 8.0 0.00 1.52 1.02 91 1011.0
20260509210505 69 159 3.0 10.0 0.00 1.71 1.02 91 1010.9
20260509210009 69 151 4.0 10.0 0.00 1.79 1.02 90 1010.8
20260509205503 69 140 5.0 10.0 0.00 1.80 1.02 90 1010.6
20260509205003 69 115 5.0 8.0 0.00 1.81 1.02 91 1010.5
20260509204512 69 123 5.0 8.0 0.00 1.82 1.02 90 1010.4
20260509204004 69 126 4.0 7.0 0.00 1.84 1.02 90 1010.7
20260509203506 69 94 3.0 6.0 0.00 1.87 1.02 90 1010.8
20260509203024 69 148 1.0 8.0 0.00 1.93 1.02 91 1011.0
20260509202505 69 94 5.0 8.0 0.00 2.03 1.02 90 1011.2
20260509202013 69 94 6.0 9.0 0.00 2.03 1.02 90 1011.5
20260509201503 68 105 3.0 9.0 0.00 2.03 1.02 91 1011.5
20260509201003 68 134 5.0 8.0 0.00 2.04 1.02 91 1011.6
20260509200503 68 117 5.0 10.0 0.00 2.05 1.02 91 1011.7
20260509200007 68 127 2.0 11.0 0.00 2.05 1.02 93 1011.8
20260509195504 67 153 7.0 11.0 0.00 2.05 1.02 92 1011.9
20260509195003 67 150 6.0 11.0 0.00 2.05 1.02 92 1012.0
20260509194511 67 112 7.0 11.0 0.00 2.05 1.02 93 1012.1
20260509194005 66 105 7.0 10.0 0.01 2.05 1.02 93 1012.4
20260509193503 66 123 6.0 9.0 0.01 2.05 1.02 93 1012.6
20260509193016 66 152 5.0 8.0 0.01 2.05 1.02 94 1012.9
20260509192504 66 130 5.0 8.0 0.02 2.05 1.02 94 1013.1
20260509192006 66 117 3.0 7.0 0.03 2.05 1.02 94 1013.3
20260509191521 66 107 4.0 7.0 0.05 2.05 1.02 94 1013.3
20260509191008 66 130 3.0 6.0 0.06 2.05 1.02 94 1013.6
20260509190502 66 130 3.0 6.0 0.08 2.05 1.02 95 1013.5
20260509190005 66 157 3.0 7.0 0.11 2.05 1.02 95 1013.5
20260509185504 65 109 4.0 7.0 0.13 2.05 1.02 96 1013.6
20260509185006 65 117 3.0 3.0 0.16 2.05 1.02 95 1013.9
20260509184512 65 115 2.0 3.0 0.18 2.05 1.02 96 1014.1
20260509184004 65 107 2.0 4.0 0.18 2.04 1.01 96 1014.1
20260509183507 65 105 3.0 4.0 0.20 2.04 1.01 96 1014.4
20260509183018 65 91 2.0 4.0 0.22 2.04 1.01 96 1014.5
20260509182504 65 117 2.0 3.0 0.23 2.03 1.00 96 1014.7
20260509182012 65 124 0.0 5.0 0.23 2.02 0.99 96 1015.0
20260509181519 65 158 1.0 6.0 0.21 2.00 0.97 96 1015.2
20260509181007 65 169 3.0 6.0 0.22 1.99 0.96 96 1015.3
20260509180505 65 152 2.0 5.0 0.21 1.97 0.94 96 1015.6
20260509180023 65 227 0.0 2.0 0.19 1.94 0.91 96 1015.7
20260509175504 64 188 1.0 3.0 0.19 1.92 0.89 96 1015.8
20260509175003 64 200 0.0 3.0 0.18 1.89 0.86 96 1015.8
20260509174506 64 180 0.0 2.0 0.18 1.87 0.84 96 1015.6
20260509174004 64 273 0.0 1.0 0.20 1.86 0.83 96 1015.3
20260509173503 64 273 0.0 2.0 0.25 1.84 0.81 96 1015.3
20260509173012 64 190 0.0 4.0 0.33 1.82 0.79 96 1015.8
20260509172505 64 197 2.0 4.0 0.38 1.80 0.77 96 1015.9
20260509172003 64 185 0.0 2.0 0.38 1.79 0.76 96 1015.8
20260509171517 64 234 0.0 2.0 0.38 1.79 0.76 96 1015.5
20260509171006 64 249 0.0 2.0 0.36 1.77 0.74 96 1015.4
20260509170507 64 248 1.0 3.0 0.35 1.76 0.73 96 1015.5
20260509170024 64 288 0.0 3.0 0.34 1.75 0.72 96 1015.4
20260509165508 64 9 1.0 3.0 0.33 1.73 0.70 96 1015.1
20260509165008 64 9 0.0 5.0 0.35 1.71 0.68 95 1015.1
20260509164505 64 309 0.0 5.0 0.35 1.69 0.66 95 1015.4
20260509164002 64 32 2.0 5.0 0.36 1.66 0.63 95 1015.3
20260509163506 65 324 2.0 4.0 0.33 1.59 0.56 95 1015.3
20260509163009 65 47 1.0 4.0 0.31 1.49 0.46 95 1015.6
20260509162505 65 155 0.0 6.0 0.25 1.42 0.39 95 1015.8
20260509162002 65 81 0.0 8.0 0.24 1.41 0.38 95 1015.4
20260509161514 65 35 3.0 8.0 0.25 1.41 0.38 95 1015.0
20260509161002 65 21 3.0 5.0 0.28 1.41 0.38 95 1015.0
20260509160507 65 352 3.0 5.0 0.29 1.41 0.38 95 1015.0
20260509160020 65 360 3.0 5.0 0.30 1.41 0.38 95 1015.2
20260509155506 65 36 2.0 5.0 0.29 1.40 0.37 95 1015.2
20260509155007 65 360 1.0 7.0 0.26 1.36 0.33 95 1015.4
20260509154524 65 49 3.0 7.0 0.24 1.34 0.31 95 1015.2
20260509154012 65 344 1.0 3.0 0.21 1.30 0.27 95 1015.3
20260509153505 65 26 2.0 4.0 0.17 1.26 0.23 95 1015.1
20260509153011 65 70 2.0 9.0 0.10 1.17 0.15 95 1015.1
20260509152504 65 360 1.0 9.0 0.10 1.16 0.14 95 1015.0
20260509152004 65 93 7.0 9.0 0.11 1.16 0.14 95 1014.7
20260509151512 65 68 0.0 3.0 0.10 1.16 0.13 95 1015.1
20260509151003 65 66 1.0 3.0 0.07 1.13 0.10 94 1015.0
20260509150509 65 55 0.0 5.0 0.08 1.12 0.09 94 1014.9
20260509150017 65 55 2.0 5.0 0.07 1.11 0.08 94 1014.8
20260509145507 65 55 2.0 6.0 0.08 1.11 0.08 94 1014.7
20260509145007 65 47 3.0 6.0 0.07 1.10 0.07 94 1014.6
20260509144532 65 54 3.0 12.0 0.07 1.10 0.07 94 1014.6
20260509144007 65 85 4.0 12.0 0.06 1.09 0.06 94 1014.6
20260509143508 65 84 5.0 11.0 0.06 1.09 0.06 94 1014.6
20260509143024 65 65 2.0 8.0 0.05 1.08 0.05 94 1014.6
20260509142503 65 86 1.0 6.0 0.04 1.07 0.04 94 1014.5
20260509142003 66 96 2.0 10.0 0.03 1.05 0.03 94 1014.5
20260509141512 66 49 0.0 10.0 0.03 1.05 0.03 94 1014.7
20260509141002 66 24 4.0 15.0 0.03 1.05 0.03 93 1014.6
20260509140502 66 53 5.0 15.0 0.01 1.04 0.01 93 1014.5
20260509140033 66 35 6.0 15.0 0.01 1.04 0.01 94 1014.5
20260509135507 66 35 2.0 9.0 0.00 1.03 0.00 95 1014.5
20260509135007 66 306 3.0 9.0 0.00 1.03 0.00 95 1014.3
20260509134523 66 53 6.0 9.0 0.00 1.03 0.00 96 1014.1
20260509134004 65 148 3.0 6.0 0.00 1.03 0.00 95 1014.0
20260509133516 65 224 2.0 6.0 0.00 1.03 0.00 96 1014.1
20260509133026 65 133 3.0 9.0 0.00 1.03 0.00 96 1014.0
20260509132508 65 93 4.0 9.0 0.00 1.03 0.00 96 1014.1
20260509132011 65 55 3.0 6.0 0.00 1.03 0.00 96 1014.2
20260509131509 65 42 3.0 6.0 0.00 1.03 0.00 96 1014.2
20260509131005 65 55 3.0 5.0 0.00 1.03 0.00 96 1014.1
20260509130503 65 56 0.0 8.0 0.00 1.03 0.00 96 1014.5
20260509130023 65 22 2.0 8.0 0.00 1.03 0.00 96 1014.4
20260509125504 65 17 2.0 5.0 0.00 1.03 0.00 96 1014.2
20260509125007 65 55 3.0 5.0 0.00 1.03 0.00 96 1014.0
20260509124524 65 49 3.0 7.0 0.00 1.03 0.00 97 1013.8
20260509124010 65 28 2.0 7.0 0.00 1.03 0.00 96 1013.8
20260509123507 65 333 3.0 6.0 0.00 1.03 0.00 97 1013.6
20260509123024 65 26 4.0 8.0 0.00 1.03 0.00 97 1013.0
20260509122509 65 77 5.0 8.0 0.00 1.03 0.00 97 1012.5
20260509122003 64 102 5.0 6.0 0.00 1.03 0.00 97 1012.5
20260509121508 64 76 1.0 4.0 0.00 1.03 0.00 97 1012.5
20260509121003 64 48 1.0 4.0 0.00 1.03 0.00 97 1012.8
20260509120504 64 140 1.0 6.0 0.00 1.03 0.00 97 1012.9
20260509120014 64 128 3.0 6.0 0.00 1.03 0.00 97 1012.3
20260509115503 64 100 3.0 4.0 0.00 1.03 0.00 97 1012.2
20260509115003 64 165 1.0 3.0 0.00 1.03 0.00 97 1012.2
20260509114520 64 263 1.0 3.0 0.00 1.03 0.00 97 1012.4
20260509114008 64 261 1.0 2.0 0.00 1.03 0.00 97 1012.4
20260509113508 64 261 1.0 2.0 0.00 1.03 0.00 97 1012.3
20260509113024 64 257 1.0 2.0 0.00 1.03 0.00 97 1012.1
20260509112503 64 257 0.0 4.0 0.00 1.03 0.00 97 1012.0
20260509112003 64 257 1.0 4.0 0.00 1.03 0.00 97 1011.9
20260509111507 64 36 2.0 4.0 0.00 1.03 0.00 97 1011.9
20260509111003 64 342 2.0 3.0 0.00 1.03 0.00 97 1011.7
20260509110503 64 97 0.0 6.0 0.00 1.03 0.00 97 1011.3
20260509110017 64 151 1.0 6.0 0.00 1.03 0.00 97 1011.1
20260509105503 64 148 4.0 6.0 0.00 1.03 0.00 97 1010.8
20260509105003 64 113 3.0 4.0 0.00 1.03 0.00 97 1011.0
20260509104515 64 142 2.0 4.0 0.00 1.03 0.00 97 1011.2
20260509104007 64 148 3.0 4.0 0.00 1.03 0.00 97 1011.1
20260509103510 64 111 2.0 3.0 0.00 1.03 0.00 97 1010.9
20260509103022 64 125 1.0 2.0 0.00 1.03 0.00 97 1011.1
20260509102508 64 112 0.0 0.0 0.00 1.03 0.00 97 1011.2
20260509102007 64 111 0.0 0.0 0.00 1.03 0.00 97 1011.5
20260509101506 64 111 0.0 0.0 0.00 1.03 0.00 97 1011.7
20260509101004 64 128 0.0 2.0 0.00 1.03 0.00 97 1011.7
20260509100504 64 186 1.0 2.0 0.00 1.03 0.00 97 1012.1
20260509100018 64 263 0.0 3.0 0.00 1.03 0.00 97 1012.5
20260509095504 64 319 2.0 3.0 0.00 1.03 0.00 96 1012.7
20260509095005 64 306 0.0 1.0 0.00 1.03 0.00 97 1012.6
20260509094515 64 296 0.0 0.0 0.00 1.03 0.00 97 1012.4
20260509094004 64 309 0.0 0.0 0.00 1.03 0.00 97 1012.4
20260509093508 64 9 0.0 0.0 0.00 1.03 0.00 97 1012.2
20260509093023 64 5 0.0 0.0 0.00 1.03 0.00 97 1012.1
20260509092511 64 46 0.0 0.0 0.00 1.03 0.00 97 1012.1
20260509091527 64 67 0.0 0.0 0.00 1.03 0.00 97 1011.9
20260509091014 64 67 0.0 0.0 0.00 1.03 0.00 97 1012.0
20260509090504 64 67 0.0 0.0 0.00 1.03 0.00 97 1011.9
20260509090010 64 67 0.0 0.0 0.00 1.03 0.00 96 1011.8
20260509085503 64 67 0.0 0.0 0.00 1.03 0.00 96 1011.7
20260509085003 64 67 0.0 0.0 0.00 1.03 0.00 96 1011.7
20260509084526 64 279 0.0 0.0 0.00 1.03 0.00 96 1011.9
20260509084005 64 279 0.0 0.0 0.00 1.03 0.00 96 1012.1
20260509083506 64 279 0.0 0.0 0.00 1.03 0.00 96 1012.4
20260509083033 64 279 0.0 0.0 0.00 1.03 0.00 96 1012.3
20260509082511 64 279 0.0 0.0 0.00 1.03 0.00 96 1012.1
20260509082006 64 279 0.0 0.0 0.00 1.03 0.00 96 1012.1
20260509081529 64 279 0.0 0.0 0.00 1.03 0.00 96 1011.9
20260509081008 64 279 0.0 0.0 0.00 1.03 0.00 96 1012.0
20260509080507 64 279 0.0 0.0 0.00 1.03 0.00 96 1012.1
20260509080035 64 279 0.0 0.0 0.00 1.03 0.00 96 1012.0
20260509075502 64 279 0.0 0.0 0.00 1.03 0.00 96 1012.0
20260509075004 64 279 0.0 0.0 0.00 1.03 0.00 96 1012.0
20260509074513 64 279 0.0 0.0 0.00 1.03 0.00 96 1012.0
20260509074003 64 279 0.0 0.0 0.00 1.03 0.00 96 1012.2
20260509073503 64 279 0.0 0.0 0.00 1.03 0.00 96 1012.3
20260509073018 64 279 0.0 0.0 0.00 1.03 0.00 96 1012.7
20260509072505 64 232 0.0 0.0 0.00 1.03 0.00 96 1012.3
20260509072006 64 232 0.0 0.0 0.00 1.03 0.00 96 1012.1
20260509071524 64 232 0.0 0.0 0.00 1.03 0.00 96 1011.9
20260509071008 64 232 0.0 0.0 0.00 1.03 0.00 96 1011.9
20260509070506 64 232 0.0 0.0 0.00 1.03 0.00 96 1012.2
20260509070026 64 232 0.0 0.0 0.00 1.03 0.00 96 1012.4
20260509065507 64 232 0.0 0.0 0.00 1.03 0.00 96 1012.3
20260509065007 64 232 0.0 0.0 0.00 1.03 0.00 96 1012.1
20260509064516 64 232 0.0 0.0 0.00 1.03 0.00 96 1012.3
20260509064003 64 232 0.0 0.0 0.00 1.03 0.00 96 1012.3
20260509063505 64 232 0.0 0.0 0.00 1.03 0.00 96 1012.4
20260509063015 64 275 0.0 0.0 0.00 1.03 0.00 96 1012.6
20260509062507 64 275 0.0 2.0 0.00 1.03 0.00 96 1012.7
20260509062007 64 320 0.0 3.0 0.00 1.03 0.00 95 1012.8
20260509061522 64 342 1.0 4.0 0.00 1.03 0.00 95 1012.7
20260509061005 64 283 0.0 4.0 0.00 1.03 0.00 95 1012.7
20260509060509 64 272 2.0 4.0 0.00 1.03 0.00 95 1012.9
20260509060025 64 304 1.0 4.0 0.00 1.03 0.00 95 1012.8
20260509055510 65 318 1.0 4.0 0.00 1.03 0.00 95 1012.6
20260509055008 65 325 1.0 4.0 0.00 1.03 0.00 95 1012.3
20260509054527 65 40 2.0 4.0 0.00 1.03 0.00 95 1012.2
20260509054008 65 308 2.0 5.0 0.00 1.03 0.00 95 1012.6
20260509053504 65 305 1.0 13.0 0.00 1.03 0.00 95 1012.3
20260509053016 65 346 6.0 13.0 0.00 1.03 0.00 95 1012.4
20260509052502 65 360 6.0 11.0 0.00 1.03 0.00 94 1012.1
20260509052008 65 306 1.0 13.0 0.01 1.03 0.00 95 1012.0
20260509051520 65 172 7.0 17.0 0.01 1.03 0.00 95 1011.3
20260509051007 65 135 7.0 17.0 0.01 1.03 0.00 95 1010.7
20260509050506 65 179 8.0 15.0 0.01 1.03 0.00 95 1010.7
20260509050035 65 178 8.0 11.0 0.01 1.03 0.00 95 1011.3
20260509045506 65 163 6.0 10.0 0.01 1.03 1.03 95 1012.1
20260509045007 65 149 6.0 10.0 0.01 1.03 1.03 95 1012.2
20260509044527 65 192 2.0 12.0 0.01 1.03 1.03 95 1012.3
20260509044007 65 173 6.0 12.0 0.01 1.03 1.03 95 1012.0
20260509043506 64 162 9.0 12.0 0.01 1.03 1.03 95 1011.8
20260509043027 64 162 7.0 14.0 0.01 1.03 1.03 95 1012.2
20260509042503 64 178 7.0 15.0 0.01 1.03 1.03 95 1012.3
20260509042007 64 184 8.0 15.0 0.00 1.02 1.02 95 1012.1
20260509041518 64 138 9.0 15.0 0.00 1.02 1.02 95 1012.1
20260509041004 64 142 6.0 15.0 0.00 1.02 1.02 95 1012.5
20260509040507 64 121 5.0 15.0 0.00 1.02 1.02 96 1013.0
20260509040023 64 119 7.0 15.0 0.00 1.02 1.02 96 1012.9
20260509035510 64 194 8.0 15.0 0.00 1.02 1.02 96 1013.4
20260509035007 64 167 7.0 15.0 0.00 1.02 1.02 96 1013.2
20260509034526 64 174 10.0 15.0 0.00 1.02 1.02 96 1013.2
20260509034010 64 170 8.0 12.0 0.00 1.02 1.02 96 1013.4
20260509033510 64 153 7.0 9.0 0.00 1.02 1.02 96 1013.8
20260509033028 64 150 2.0 3.0 0.00 1.02 1.02 96 1014.0
20260509032511 64 317 0.0 2.0 0.00 1.02 1.02 96 1014.3
20260509032005 64 331 0.0 3.0 0.00 1.02 1.02 96 1014.4
20260509031522 64 331 1.0 3.0 0.00 1.02 1.02 96 1014.2
20260509031003 64 165 0.0 4.0 0.00 1.02 1.02 96 1014.4
20260509030508 65 180 2.0 4.0 0.00 1.02 1.02 96 1015.0
20260509030032 65 159 3.0 4.0 0.00 1.02 1.02 96 1015.2
20260509025507 64 211 0.0 1.0 0.00 1.02 1.02 96 1015.1
20260509025007 64 211 0.0 1.0 0.00 1.02 1.02 96 1014.7
20260509024525 64 273 0.0 0.0 0.00 1.02 1.02 96 1014.6
20260509024006 64 273 0.0 4.0 0.00 1.02 1.02 96 1014.6
20260509023503 64 273 0.0 4.0 0.00 1.02 1.02 96 1014.5
20260509023015 64 344 2.0 4.0 0.00 1.02 1.02 96 1014.2
20260509022504 64 331 2.0 3.0 0.00 1.02 1.02 96 1013.5
20260509022004 64 348 2.0 5.0 0.00 1.02 1.02 96 1013.5
20260509021514 65 181 1.0 6.0 0.00 1.02 1.02 96 1013.8
20260509021003 64 143 4.0 6.0 0.00 1.02 1.02 96 1013.9
20260509020508 64 99 2.0 6.0 0.00 1.02 1.02 96 1013.5
20260509020020 64 102 2.0 8.0 0.00 1.02 1.02 96 1013.6
20260509015505 64 128 4.0 8.0 0.00 1.02 1.02 96 1013.5
20260509015005 64 134 4.0 7.0 0.00 1.02 1.02 96 1013.5
20260509014523 64 122 4.0 7.0 0.00 1.02 1.02 96 1013.6
20260509014007 64 127 3.0 7.0 0.00 1.02 1.02 96 1013.8